Location: Bad Salzschlirf
(50.3750°N, 9.3000°E)
Time: 03:04:45
(UTC+02:00)

ISS - Pass Details

Date: 08 July 2025
Orbit: 413 x 417 km, 51.6° (Epoch: 12 July)

Event Time Altitude Azimuth Distance (km) Brightness Sun altitude
Rises 01:12:11 0° 264° (W) 2,352 0.0 -17.1°
Reaches altitude 10° 01:14:16 10° 267° (W) 1,490 -1.0 -17.1°
Maximum altitude 01:17:37 74° 352° (N) 438 -3.6 -17.1°
Drops below altitude 10° 01:20:58 10° 78° (ENE) 1,495 -0.8 -17.1°
Sets 01:23:04 0° 81° (E) 2,359 0.2 -17.1°
